Regional Weather Roundup
Issued by NWS Boston, MA

Home | Current Version | Previous Version | Text Only | Print | Product List | Glossary On
Versions: 1 2 3 4 5 6 7 8 9 10 11 12 13 14 15 16 17 18 19 20 21 22 23 24 25 26 27 28
000
ASUS41 KBOX 162310
RWRBOX

REGIONAL WEATHER ROUNDUP
NATIONAL WEATHER SERVICE TAUNTON MA
600 PM EST SAT DEC 16 2017

NOTE:  "FAIR" INDICATES FEW OR NO CLOUDS BELOW 12,000 FEET WITH NO
SIGNIFICANT WEATHER AND/OR OBSTRUCTIONS TO VISIBILITY.

MAZALL-170000-
EASTERN MASSACHUSETTS

CITY           SKY/WX    TMP DP  RH WIND       PRES   REMARKS
BOSTON         PTCLDY    30  16  56 W16G23    30.01R WCI  19
BEVERLY        CLEAR     29  15  56 W9        29.99R WCI  20
LAWRENCE       CLEAR     30  15  53 W10       30.02R WCI  21
BEDFORD        PTCLDY    27  15  61 W5        30.01R WCI  22
BLUE HILL        N/A     26  18  71 W12       29.98R WCI  16
NORWOOD        PTCLDY    29  20  69 W6        30.02R WCI  23
MARSHFIELD     PTCLDY    32  18  55 W9        30.01R WCI  24
PLYMOUTH       CLOUDY    29  16  58 W5        30.01R WCI  24
TAUNTON        CLOUDY    30  18  60 W7        30.02R WCI  23
NEW BEDFORD    CLOUDY    32  20  61 NW6       30.02R WCI  26
$$

MAZALL-170000-
CAPE COD AND THE ISLANDS

CITY           SKY/WX    TMP DP  RH WIND       PRES   REMARKS
FALMOUTH       CLOUDY    28  18  64 NW9       30.02R WCI  20
HYANNIS        PTCLDY    30  17  58 W5        30.00R WCI  25
CHATHAM        PTCLDY    32  19  58 W8G16     30.01R WCI  25
PROVINCETOWN   PTCLDY    32  16  51 W23G31    29.99R WCI  19
NANTUCKET      CLOUDY    34  22  61 NW17G24   30.00R WCI  23
MARTHAS VNYRD  CLOUDY   N/A N/A N/A NW13      30.00R
$$

MAZALL-170000-
CENTRAL AND WESTERN MASSACHUSETTS

CITY           SKY/WX    TMP DP  RH WIND       PRES   REMARKS
WORCESTER      CLOUDY    24  18  77 W8        29.98R WCI  15
FITCHBURG      CLEAR     28  17  63 W7        30.02R WCI  21
ORANGE         NOT AVBL
SPRINGFIELD    CLOUDY    28  19  68 W10       30.03R WCI  18
WESTFIELD      CLOUDY    28  20  71 W7        30.04R WCI  21
NORTH ADAMS    MOCLDY    25  16  68 W15G22    30.03R WCI  13
PITTSFIELD     CLOUDY    24  17  74 W8        30.00R WCI  15
$$

RIZALL-170000-
RHODE ISLAND

CITY           SKY/WX    TMP DP  RH WIND       PRES   REMARKS
PROVIDENCE     CLOUDY    33  21  61 NW9       30.04R WCI  25
NEWPORT        FLURRIES  34  21  59 W13G20    30.01R WCI  25
BLOCK ISLAND   CLOUDY    36  24  62 W23G30    30.02R WCI  24
SMITHFIELD     CLOUDY    28  20  71 W10       30.01R WCI  19
WESTERLY       CLOUDY    35  22  58 W6        30.03R WCI  30
$$

CTZALL-170000-
CONNECTICUT

CITY           SKY/WX    TMP DP  RH WIND       PRES   REMARKS
BRADLEY INTL   CLOUDY    29  21  72 NW8       30.05R WCI  21
HARTFORD       FLURRIES  30  23  75 NW9       30.07R WCI  22
BRIDGEPORT     CLOUDY    35  24  64 W9        30.06R WCI  28
DANBURY        CLOUDY    33  22  63 W5        30.05R WCI  29
GROTON         CLOUDY    35  21  56 W9        30.04R WCI  28
NEW HAVEN      CLOUDY    36  23  59 W5        30.05R
CHESTER        MOCLDY    32  19  59 CALM      30.03R
MERIDEN        CLOUDY    33  21  61 NW7       30.05R WCI  27
WILLIMANTIC    FLURRIES  31  22  69 NW10      30.05R WCI  22
OXFORD         CLOUDY    30  22  72 VRB6      30.02R WCI  24
$$

MEZ002-015-021-024-NHZ003-005-008-011-012-014-VTZ005-008-170000-
NORTHERN NEW ENGLAND

CITY           SKY/WX    TMP DP  RH WIND       PRES   REMARKS
PORTLAND ME    MOCLDY    26  16  65 W5        29.97R WCI  20
BANGOR ME      MOCLDY    20  15  81 NW6       29.93R WCI  12
CONCORD NH     PTCLDY    24  19  81 W8        29.99R WCI  15
MANCHESTER NH  PTCLDY    28  13  53 W9G20     29.99R WCI  19
NASHUA NH      PTCLDY    26  19  74 W8G14     30.02R WCI  18
PORTSMOUTH NH  LGT SNOW  27  19  74 NW25G37   29.99R VSB 3/4 WCI  11
JAFFREY NH     PTCLDY    23  18  81 CALM      29.96R
KEENE NH       FLURRIES  24  16  71 N14G23    30.03R WCI  12
BURLINGTON VT  CLEAR     19   7  59 N6        30.06R WCI  11
MT. WASHINGTON SNOWSHWR  -6  -6 100 NW60G69     N/A  VSB 0   WCI -41
$$

NYZ052-076-170000-
EASTERN NEW YORK

CITY           SKY/WX    TMP DP  RH WIND       PRES   REMARKS
ALBANY         MOCLDY    25  15  66 NW9       30.08R WCI  15
NEW YORK CITY  CLOUDY    40  24  53 W12G26    30.05R
$$

ANZALL-170000-
MARINE OBSERVATIONS

STATION/POSITION TIME  TEMP    WIND        PRES    VSBY  WAVE
                       AIR SEA DIR/SP/G                  HT/PER
                 (UTC) (F)     (DEG/KT/KT) (MB)    (MI)  (FT/S)
BOSTON BUOY      2250   34 47  270/ 25/ 31 1014.5R         3/ 4
BUZZARDS BAY     2200   36     280/ 24/ 27 1015.3R
NANTUCKET SOUND  2250   34 41  320/ 16/ 19 1015.9R         3/ 4
MASS BAY-STELLWA 2204   33 46  280/ 23/ 29 1013.9R         4/ 5
ISLE OF SHOALS   2200   30     270/ 24/ 27 1013.4R
S OF BLOCK IS    2213      52                N/A           8/ 8
$$

......................KEY.........................
  SKY/WX - SKY CONDITION/PRESENT WEATHER
  TMP    - TEMPERATURE IN FAHRENHEIT
  DWPT   - DEWPOINT IN FAHRENHEIT
  RH     - RELATIVE HUMIDITY IN PERCENT
  WIND   - DIRECTION AND SPEED IN MPH
  PRES   - MEAN SEA LEVEL PRESSURE IN INCHES OF HG
  WCI    - WIND CHILL INDEX
  VSB    - VISIBILITY IN MILES
  HX     - HEAT INDEX
  TC     - TEMPERATURE IN CELSIUS
  VRB    - VARIABLE WIND DIRECTION
  N/A    - NOT AVAILABLE




USA.gov is the U.S. government's official web portal to all federal, state and local government web resources and services.